DAL1715 KLAX-KSFO

Flight info

Callsign DAL1715
Flight time 0h 54m
Altitude 34000
Route SUMMR2 STOKD SERFR SERFR4
Aircraft A321/M-SDE3FGHIRWY/LB1

Departure

Time 2026-05-05 01:37
Airport Los Angeles International Airport (KLAX)

Arrival

Time 2026-05-05 02:32
Airport San Francisco International Airport (KSFO)
Time Latitude Longitude Altitude Speed Heading
2026-05-05 01:16 33.94631 -118.40838 93 ft 0 kts 97°
2026-05-05 01:25 33.94632 -118.40861 93 ft 4 kts 72°
2026-05-05 01:25 33.94618 -118.40884 92 ft 4 kts 27°
2026-05-05 01:25 33.94593 -118.40893 92 ft 4 kts 359°
2026-05-05 01:25 33.94594 -118.40894 92 ft 4 kts 353°
2026-05-05 01:26 33.94620 -118.40898 93 ft 2 kts 353°
2026-05-05 01:26 33.94621 -118.40898 92 ft 0 kts 353°
2026-05-05 01:31 33.94622 -118.40898 92 ft 2 kts 353°
2026-05-05 01:31 33.94654 -118.40903 94 ft 9 kts 353°
2026-05-05 01:32 33.94728 -118.40910 95 ft 9 kts
2026-05-05 01:32 33.94782 -118.40884 96 ft 9 kts 12°
2026-05-05 01:32 33.94835 -118.40845 95 ft 13 kts 67°
2026-05-05 01:32 33.94848 -118.40745 96 ft 12 kts 83°
2026-05-05 01:33 33.94862 -118.40615 97 ft 20 kts 83°
2026-05-05 01:33 33.94878 -118.40458 97 ft 18 kts 83°
2026-05-05 01:33 33.94893 -118.40313 94 ft 17 kts 83°
2026-05-05 01:33 33.94907 -118.40178 95 ft 15 kts 83°
2026-05-05 01:34 33.94919 -118.40053 94 ft 15 kts 83°
2026-05-05 01:34 33.94934 -118.39948 94 ft 8 kts 65°
2026-05-05 01:34 33.94952 -118.39926 93 ft 0 kts 35°
2026-05-05 01:36 33.94960 -118.39920 93 ft 4 kts 30°
2026-05-05 01:36 33.95012 -118.39915 94 ft 10 kts 344°
2026-05-05 01:36 33.95037 -118.40004 93 ft 16 kts 263°
2026-05-05 01:37 33.95008 -118.40282 98 ft 64 kts 263°
2026-05-05 01:37 33.94928 -118.41062 98 ft 121 kts 263°
2026-05-05 01:37 33.94815 -118.42221 182 ft 154 kts 264°
2026-05-05 01:37 33.94723 -118.43457 842 ft 145 kts 264°
2026-05-05 01:38 33.94656 -118.44697 1397 ft 151 kts 266°
2026-05-05 01:38 33.94624 -118.45988 1887 ft 159 kts 267°
2026-05-05 01:38 33.94601 -118.47363 2316 ft 169 kts 267°
2026-05-05 01:38 33.94564 -118.48796 2845 ft 173 kts 266°
2026-05-05 01:39 33.94534 -118.50281 3296 ft 182 kts 267°
2026-05-05 01:39 33.94471 -118.51817 3795 ft 185 kts 265°
2026-05-05 01:39 33.94377 -118.53393 4181 ft 195 kts 265°
2026-05-05 01:39 33.94286 -118.55107 4497 ft 216 kts 265°
2026-05-05 01:40 33.94181 -118.56988 4809 ft 243 kts 265°
2026-05-05 01:40 33.94029 -118.59106 5220 ft 259 kts 264°
2026-05-05 01:40 33.93785 -118.61250 6174 ft 259 kts 261°
2026-05-05 01:40 33.93496 -118.63408 7022 ft 263 kts 261°
2026-05-05 01:41 33.93222 -118.65578 7911 ft 264 kts 261°
2026-05-05 01:41 33.92979 -118.67782 8699 ft 268 kts 261°
2026-05-05 01:41 33.92762 -118.70031 9504 ft 272 kts 261°
2026-05-05 01:41 33.92561 -118.72309 10228 ft 279 kts 262°
2026-05-05 01:42 33.92356 -118.74725 10446 ft 302 kts 262°
2026-05-05 01:42 33.92143 -118.77299 10792 ft 318 kts 262°
2026-05-05 01:42 33.91935 -118.79935 11445 ft 323 kts 263°
2026-05-05 01:42 33.91729 -118.82650 11873 ft 327 kts 264°
2026-05-05 01:43 33.91748 -118.85400 12204 ft 331 kts 270°
2026-05-05 01:43 33.91845 -118.88172 13029 ft 332 kts 270°
2026-05-05 01:43 33.91933 -118.90959 13794 ft 335 kts 270°
2026-05-05 01:43 33.92016 -118.93767 14447 ft 337 kts 270°
2026-05-05 01:44 33.92097 -118.96604 15115 ft 340 kts 270°
2026-05-05 01:44 33.92238 -118.99458 15765 ft 345 kts 275°
2026-05-05 01:44 33.92816 -119.02281 16404 ft 352 kts 287°
2026-05-05 01:44 33.93891 -119.04913 17015 ft 359 kts 298°
2026-05-05 01:45 33.95234 -119.07466 17676 ft 363 kts 298°
2026-05-05 01:45 33.96582 -119.10054 18302 ft 366 kts 298°
2026-05-05 01:45 33.97935 -119.12672 18848 ft 369 kts 297°
2026-05-05 01:45 33.99290 -119.15307 19415 ft 371 kts 297°
2026-05-05 01:46 34.00790 -119.17859 19971 ft 378 kts 305°
2026-05-05 01:46 34.02692 -119.20091 20543 ft 386 kts 316°
2026-05-05 01:46 34.04860 -119.21973 21080 ft 391 kts 319°
2026-05-05 01:46 34.07090 -119.23868 21618 ft 393 kts 319°
2026-05-05 01:47 34.09328 -119.25781 22155 ft 396 kts 319°
2026-05-05 01:47 34.11578 -119.27709 22684 ft 398 kts 318°
2026-05-05 01:47 34.13839 -119.29652 23213 ft 400 kts 318°
2026-05-05 01:47 34.16110 -119.31614 23712 ft 403 kts 317°
2026-05-05 01:48 34.18395 -119.33593 24110 ft 405 kts 317°
2026-05-05 01:48 34.20699 -119.35584 24500 ft 408 kts 317°
2026-05-05 01:48 34.23016 -119.37585 24890 ft 411 kts 317°
2026-05-05 01:48 34.25356 -119.39607 25263 ft 414 kts 316°
2026-05-05 01:49 34.27709 -119.41643 25640 ft 417 kts 316°
2026-05-05 01:49 34.30045 -119.43662 26020 ft 420 kts 316°
2026-05-05 01:49 34.32431 -119.45727 26375 ft 423 kts 316°
2026-05-05 01:49 34.34833 -119.47808 26738 ft 426 kts 316°
2026-05-05 01:50 34.37248 -119.49903 26984 ft 429 kts 315°
2026-05-05 01:50 34.39672 -119.52007 27046 ft 429 kts 316°
2026-05-05 01:50 34.41951 -119.54280 27046 ft 420 kts 308°
2026-05-05 01:50 34.43996 -119.56786 27032 ft 418 kts 306°
2026-05-05 01:51 34.46033 -119.59297 27024 ft 418 kts 306°
2026-05-05 01:51 34.48076 -119.61810 27015 ft 418 kts 307°
2026-05-05 01:51 34.50119 -119.64320 27016 ft 418 kts 306°
2026-05-05 01:51 34.52163 -119.66834 27016 ft 418 kts 306°
2026-05-05 01:52 34.54176 -119.69314 27017 ft 418 kts 306°
2026-05-05 01:52 34.56217 -119.71826 27013 ft 418 kts 307°
2026-05-05 01:52 34.58261 -119.74342 27018 ft 418 kts 306°
2026-05-05 01:52 34.60302 -119.76862 27014 ft 418 kts 306°
2026-05-05 01:53 34.62337 -119.79380 27017 ft 418 kts 306°
2026-05-05 01:53 34.64375 -119.81901 27015 ft 418 kts 306°
2026-05-05 01:53 34.66410 -119.84419 27030 ft 419 kts 307°
2026-05-05 01:53 34.68451 -119.86945 27025 ft 419 kts 307°
2026-05-05 01:54 34.70496 -119.89482 27267 ft 421 kts 307°
2026-05-05 01:54 34.72552 -119.92033 27687 ft 424 kts 306°
2026-05-05 01:54 34.74590 -119.94566 28063 ft 426 kts 307°
2026-05-05 01:54 34.76663 -119.97147 28399 ft 428 kts 307°
2026-05-05 01:55 34.78749 -119.99747 28736 ft 430 kts 306°
2026-05-05 01:55 34.80844 -120.02356 29072 ft 432 kts 306°
2026-05-05 01:55 34.82950 -120.04979 29407 ft 435 kts 306°
2026-05-05 01:55 34.85072 -120.07619 29722 ft 438 kts 306°
2026-05-05 01:56 34.87207 -120.10276 30050 ft 440 kts 306°
2026-05-05 01:56 34.89351 -120.12948 30345 ft 442 kts 307°
2026-05-05 01:56 34.91503 -120.15633 30625 ft 444 kts 308°
2026-05-05 01:56 34.92932 -120.17419 30794 ft 445 kts 308°
2026-05-05 01:57 34.95095 -120.20125 31063 ft 447 kts 308°
2026-05-05 01:57 34.97273 -120.22855 31330 ft 450 kts 307°
2026-05-05 01:57 35.00163 -120.26478 31789 ft 450 kts 307°
2026-05-05 01:57 35.02344 -120.29211 32181 ft 449 kts 307°
2026-05-05 01:58 35.04523 -120.31943 32546 ft 449 kts 307°
2026-05-05 01:58 35.06696 -120.34671 32927 ft 449 kts 308°
2026-05-05 01:58 35.08134 -120.36479 33173 ft 448 kts 308°
2026-05-05 01:58 35.10338 -120.39184 33525 ft 449 kts 309°
2026-05-05 01:59 35.12611 -120.41806 33894 ft 451 kts 311°
2026-05-05 01:59 35.14938 -120.44380 34029 ft 449 kts 313°
2026-05-05 01:59 35.20274 -120.50172 34047 ft 438 kts 312°
2026-05-05 02:00 35.24046 -120.54353 34054 ft 436 kts 313°
2026-05-05 02:00 35.28477 -120.59342 34055 ft 436 kts 312°
2026-05-05 02:01 35.32927 -120.64380 34054 ft 436 kts 312°
2026-05-05 02:01 35.37386 -120.69416 34051 ft 436 kts 312°
2026-05-05 02:02 35.41841 -120.74459 34050 ft 436 kts 313°
2026-05-05 02:02 35.46304 -120.79507 34045 ft 436 kts 313°
2026-05-05 02:03 35.50992 -120.84275 34046 ft 440 kts 319°
2026-05-05 02:03 35.55881 -120.88799 34047 ft 440 kts 319°
2026-05-05 02:04 35.60734 -120.93298 34043 ft 440 kts 320°
2026-05-05 02:04 35.65618 -120.97835 34060 ft 440 kts 320°
2026-05-05 02:05 35.70497 -121.02385 34047 ft 441 kts 320°
2026-05-05 02:05 35.75419 -121.06982 33728 ft 449 kts 321°
2026-05-05 02:06 35.77910 -121.09312 33467 ft 449 kts 321°
2026-05-05 02:06 35.80397 -121.11636 33202 ft 448 kts 321°
2026-05-05 02:06 35.82872 -121.13952 32940 ft 446 kts 320°
2026-05-05 02:06 35.85299 -121.16226 32688 ft 444 kts 322°
2026-05-05 02:07 35.87751 -121.18524 32427 ft 442 kts 321°
2026-05-05 02:07 35.90191 -121.20812 32174 ft 440 kts 320°
2026-05-05 02:07 35.92625 -121.23094 31919 ft 439 kts 323°
2026-05-05 02:07 35.95056 -121.25369 31679 ft 437 kts 323°
2026-05-05 02:08 35.97467 -121.27627 31436 ft 435 kts 324°
2026-05-05 02:08 35.99871 -121.29889 31191 ft 433 kts 323°
2026-05-05 02:08 36.02257 -121.32141 31005 ft 431 kts 324°
2026-05-05 02:08 36.04642 -121.34392 30792 ft 430 kts 324°
2026-05-05 02:09 36.07032 -121.36604 30556 ft 428 kts 327°
2026-05-05 02:09 36.09534 -121.38572 30315 ft 426 kts 330°
2026-05-05 02:09 36.12042 -121.40521 30080 ft 425 kts 330°
2026-05-05 02:09 36.14499 -121.42432 29695 ft 420 kts 330°
2026-05-05 02:10 36.16956 -121.44353 29172 ft 416 kts 330°
2026-05-05 02:10 36.19389 -121.46259 28658 ft 412 kts 330°
2026-05-05 02:10 36.21727 -121.48089 28165 ft 408 kts 330°
2026-05-05 02:10 36.23817 -121.49722 27727 ft 404 kts 330°
2026-05-05 02:11 36.26186 -121.51574 27239 ft 400 kts 330°
2026-05-05 02:11 36.28530 -121.53406 26771 ft 396 kts 329°
2026-05-05 02:11 36.30846 -121.55221 26304 ft 393 kts 329°
2026-05-05 02:11 36.33143 -121.57023 25856 ft 389 kts 329°
2026-05-05 02:12 36.35418 -121.58810 25415 ft 385 kts 329°
2026-05-05 02:12 36.39872 -121.62315 24549 ft 378 kts 329°
2026-05-05 02:12 36.42082 -121.64055 24136 ft 374 kts 330°
2026-05-05 02:13 36.44274 -121.65783 23696 ft 372 kts 330°
2026-05-05 02:13 36.46446 -121.67498 23210 ft 369 kts 330°
2026-05-05 02:13 36.48606 -121.69201 22778 ft 365 kts 330°
2026-05-05 02:13 36.50738 -121.70875 22358 ft 360 kts 330°
2026-05-05 02:14 36.52844 -121.72533 21935 ft 357 kts 330°
2026-05-05 02:14 36.54902 -121.74158 21509 ft 354 kts 330°
2026-05-05 02:14 36.56970 -121.75794 21074 ft 351 kts 329°
2026-05-05 02:14 36.59021 -121.77419 20645 ft 348 kts 330°
2026-05-05 02:15 36.61052 -121.79026 20222 ft 345 kts 330°
2026-05-05 02:15 36.63068 -121.80624 19803 ft 343 kts 330°
2026-05-05 02:15 36.65076 -121.82216 19365 ft 340 kts 330°
2026-05-05 02:15 36.67067 -121.83793 18946 ft 338 kts 330°
2026-05-05 02:16 36.69050 -121.85361 18526 ft 337 kts 330°
2026-05-05 02:16 36.71020 -121.86922 18080 ft 335 kts 330°
2026-05-05 02:16 36.72991 -121.88451 17637 ft 332 kts 334°
2026-05-05 02:16 36.75084 -121.89600 17221 ft 326 kts 344°
2026-05-05 02:17 36.77263 -121.90282 16835 ft 321 kts 350°
2026-05-05 02:17 36.79395 -121.90872 16457 ft 318 kts 349°
2026-05-05 02:17 36.81552 -121.91477 16071 ft 315 kts 349°
2026-05-05 02:17 36.83684 -121.92077 15693 ft 313 kts 349°
2026-05-05 02:18 36.85799 -121.92669 15314 ft 310 kts 349°
2026-05-05 02:18 36.87896 -121.93258 14941 ft 308 kts 349°
2026-05-05 02:18 36.89982 -121.93845 14562 ft 306 kts 349°
2026-05-05 02:18 36.92057 -121.94427 14191 ft 304 kts 349°
2026-05-05 02:19 36.94115 -121.95002 13813 ft 303 kts 348°
2026-05-05 02:19 36.96160 -121.95617 13409 ft 301 kts 347°
2026-05-05 02:19 36.98161 -121.96345 13042 ft 298 kts 345°
2026-05-05 02:19 37.00134 -121.97127 12670 ft 296 kts 344°
2026-05-05 02:20 37.02058 -121.97909 12304 ft 294 kts 343°
2026-05-05 02:20 37.03995 -121.98694 11933 ft 292 kts 343°
2026-05-05 02:20 37.05925 -121.99467 11563 ft 290 kts 344°
2026-05-05 02:20 37.07844 -122.00229 11194 ft 289 kts 344°
2026-05-05 02:21 37.09753 -122.00980 10824 ft 287 kts 344°
2026-05-05 02:21 37.11655 -122.01724 10453 ft 286 kts 343°
2026-05-05 02:21 37.13543 -122.02463 10234 ft 282 kts 343°
2026-05-05 02:21 37.15415 -122.03196 10131 ft 281 kts 343°
2026-05-05 02:22 37.17283 -122.03927 10022 ft 282 kts 343°
2026-05-05 02:22 37.19139 -122.04653 9856 ft 275 kts 343°
2026-05-05 02:22 37.20953 -122.05365 9470 ft 273 kts 343°
2026-05-05 02:22 37.22772 -122.06078 9013 ft 274 kts 343°
2026-05-05 02:23 37.24565 -122.06781 8608 ft 275 kts 343°
2026-05-05 02:23 37.26387 -122.07497 8219 ft 274 kts 344°
2026-05-05 02:23 37.28202 -122.08212 7850 ft 273 kts 344°
2026-05-05 02:23 37.30012 -122.08923 7490 ft 273 kts 344°
2026-05-05 02:24 37.31830 -122.09636 7133 ft 275 kts 343°
2026-05-05 02:24 37.33653 -122.10351 6771 ft 274 kts 343°
2026-05-05 02:24 37.35475 -122.11069 6405 ft 275 kts 343°
2026-05-05 02:24 37.37292 -122.11789 6051 ft 274 kts 343°
2026-05-05 02:25 37.39120 -122.12474 5651 ft 278 kts 345°
2026-05-05 02:25 37.40981 -122.13106 5329 ft 274 kts 346°
2026-05-05 02:25 37.42804 -122.13701 4908 ft 267 kts 345°
2026-05-05 02:25 37.44588 -122.14282 4199 ft 262 kts 344°
2026-05-05 02:26 37.46318 -122.14852 3705 ft 248 kts 343°
2026-05-05 02:26 37.47879 -122.15365 3510 ft 223 kts 342°
2026-05-05 02:26 37.49295 -122.15832 3401 ft 198 kts 343°
2026-05-05 02:26 37.50548 -122.16247 3323 ft 175 kts 340°
2026-05-05 02:27 37.51673 -122.16623 3251 ft 162 kts 341°
2026-05-05 02:27 37.52715 -122.17076 3179 ft 156 kts 328°
2026-05-05 02:27 37.53592 -122.17845 3108 ft 152 kts 314°
2026-05-05 02:27 37.54200 -122.18927 2906 ft 150 kts 299°
2026-05-05 02:28 37.54722 -122.20055 2714 ft 148 kts 296°
2026-05-05 02:28 37.55213 -122.21168 2581 ft 142 kts 296°
2026-05-05 02:28 37.55690 -122.22277 2432 ft 144 kts 296°
2026-05-05 02:28 37.56156 -122.23372 2258 ft 144 kts 295°
2026-05-05 02:29 37.56625 -122.24482 2067 ft 144 kts 295°
2026-05-05 02:29 37.57093 -122.25588 1883 ft 140 kts 295°
2026-05-05 02:29 37.57537 -122.26640 1692 ft 134 kts 295°
2026-05-05 02:29 37.57971 -122.27665 1494 ft 132 kts 295°
2026-05-05 02:30 37.58404 -122.28690 1323 ft 132 kts 297°
2026-05-05 02:30 37.58834 -122.29698 1130 ft 131 kts 297°
2026-05-05 02:30 37.59263 -122.30707 943 ft 130 kts 297°
2026-05-05 02:30 37.59684 -122.31717 776 ft 131 kts 297°
2026-05-05 02:31 37.60111 -122.32739 588 ft 131 kts 297°
2026-05-05 02:31 37.60541 -122.33750 409 ft 132 kts 296°
2026-05-05 02:31 37.60963 -122.34765 256 ft 131 kts 296°
2026-05-05 02:31 37.61378 -122.35763 92 ft 130 kts 295°
2026-05-05 02:32 37.61771 -122.36723 24 ft 100 kts 298°
2026-05-05 02:32 37.61957 -122.37159 22 ft 19 kts 298°
2026-05-05 02:32 37.62049 -122.37376 22 ft 38 kts 298°
2026-05-05 02:32 37.62189 -122.37715 23 ft 27 kts 296°
2026-05-05 02:33 37.62228 -122.37872 25 ft 18 kts 278°
2026-05-05 02:33 37.62229 -122.38022 22 ft 17 kts 267°
2026-05-05 02:33 37.62222 -122.38148 22 ft 11 kts 255°
2026-05-05 02:33 37.62166 -122.38209 24 ft 11 kts 207°
2026-05-05 02:34 37.62102 -122.38251 23 ft 10 kts 209°
2026-05-05 02:34 37.62041 -122.38292 22 ft 9 kts 206°
2026-05-05 02:34 37.62029 -122.38354 22 ft 8 kts 292°
2026-05-05 02:34 37.62052 -122.38411 22 ft 8 kts 297°
2026-05-05 02:35 37.62077 -122.38472 23 ft 9 kts 290°
2026-05-05 02:35 37.62056 -122.38532 22 ft 6 kts 217°
2026-05-05 02:35 37.62017 -122.38559 22 ft 7 kts 208°
2026-05-05 02:35 37.61978 -122.38557 22 ft 5 kts 145°
2026-05-05 02:36 37.61966 -122.38524 22 ft 4 kts 106°
2026-05-05 02:36 37.61954 -122.38496 22 ft 3 kts 124°
2026-05-05 02:36 37.61946 -122.38481 22 ft 1 kts 122°
2026-05-05 02:36 37.61946 -122.38480 22 ft 0 kts 122°